This is the latest recevied weather packets stored in our database for station/object GCEMA. If no packets are shown the sender has not sent any weather packets the latest 10 day(s).
| Time | Temp. | Humidity | Pressure | Rain* | Wind** | Luminosity | Snow |
|---|---|---|---|---|---|---|---|
| 1777389453 | 17.22° C | - | 1013.1 hPa | 0 mm | 0 m/s | - | - |
| 1777389274 | 16.67° C | - | 1013 hPa | 0 mm | 0 m/s | - | - |
| 1777389096 | 16.67° C | - | 1013 hPa | 0 mm | 0 m/s | - | - |
| 1777388912 | 16.67° C | - | 1012.9 hPa | 0 mm | 0 m/s | - | - |
| 1777388732 | 18.33° C | - | 1012.8 hPa | 0 mm | 0 m/s | - | - |
| 1777388553 | 17.78° C | - | 1012.8 hPa | 0 mm | 0 m/s | - | - |
| 1777388373 | 16.67° C | - | 1012.7 hPa | 0 mm | 0 m/s | - | - |
| 1777388193 | 16.67° C | - | 1012.7 hPa | 0 mm | 0 m/s | - | - |
| 1777388011 | 17.22° C | - | 1012.7 hPa | 0 mm | 0 m/s | - | - |
| 1777387831 | 17.22° C | - | 1012.7 hPa | 0 mm | 0 m/s | - | - |
| 1777387652 | 18.33° C | - | 1012.5 hPa | 0 mm | 0 m/s | - | - |
| 1777387472 | 16.67° C | - | 1012.5 hPa | 0 mm | 0 m/s | - | - |
| 1777387110 | 16.67° C | - | 1012.5 hPa | 0 mm | 0 m/s | - | - |
| 1777386930 | 16.67° C | - | 1012.5 hPa | 0 mm | 0 m/s | - | - |
| 1777386751 | 17.78° C | - | 1012.4 hPa | 0 mm | 0 m/s | - | - |
| 1777386571 | 17.22° C | - | 1012.4 hPa | 0 mm | 0 m/s | - | - |
| 1777386209 | 16.67° C | - | 1012.3 hPa | 0 mm | 0 m/s | - | - |
| 1777386030 | 18.33° C | - | 1012.2 hPa | 0 mm | 0 m/s | - | - |
| 1777385850 | 17.22° C | - | 1012.2 hPa | 0 mm | 0 m/s | - | - |
| 1777385671 | 17.22° C | - | 1012.3 hPa | 0 mm | 0 m/s | - | - |
| 1777385491 | 16.11° C | - | 1012.3 hPa | 0 mm | 0 m/s | - | - |
| 1777385129 | 16.67° C | - | 1012.4 hPa | 0 mm | 0 m/s | - | - |
| 1777384950 | 16.11° C | - | 1012.4 hPa | 0 mm | 0 m/s | - | - |
| 1777384770 | 16.67° C | - | 1012.3 hPa | 0 mm | 0 m/s | - | - |
| 1777384590 | 16.11° C | - | 1012.3 hPa | 0 mm | 0 m/s | - | - |
* Rain latest hour (hover to see other rain measurements)
** Current wind speed in m/s (hover to see current wind gust speed)